Regional Weather Roundup
Issued by NWS

Home | Current Version | Previous Version | Graphics & Text | Print | Product List | Glossary On
Versions: 1 2 3 4 5 6 7 8 9 10 11 12 13 14 15 16 17 18 19 20 21 22 23 24 25 26 27 28 29 30 31 32 33 34 35 36 37 38 39 40 41 42 43 44 45 46 47 48 49 50
000
ASUS43 KTOP 010359
RWRKS

WEATHER ROUNDUP FOR KANSAS
NATIONAL WEATHER SERVICE GOODLAND KS
1100 PM CDT SUN AUG 31 2014

NOTE:  "FAIR" INDICATES FEW OR NO CLOUDS BELOW 12,000 FEET WITH NO
SIGNIFICANT WEATHER AND/OR OBSTRUCTIONS TO VISIBILITY.

KSZ001>006-013>018-027>032-041>047-010500-
NORTHWEST KANSAS

CITY           SKY/WX    TMP DP  RH WIND       PRES   REMARKS
GOODLAND       MOCLDY    61  57  87 S3        29.87R
HAYS           CLOUDY    68  63  83 E6        29.81R THUNDER
HILL CITY      CLOUDY    68  63  84 CALM      29.78F
RUSSELL        LGT RAIN  70  67  90 NW8       29.81R
$$

KSZ061>065-074>080-084>089-010500-
SOUTHWEST KANSAS

CITY           SKY/WX    TMP DP  RH WIND       PRES   REMARKS
DODGE CITY     PTCLDY    70  64  81 N18       29.76R
ELKHART          N/A     73  54  51 N16         N/A
GARDEN CITY    PTCLDY    71  60  68 NE18      29.81R
GREAT BEND     CLOUDY    70  64  83 NE9       29.72F
LIBERAL        PTCLDY    75  57  53 N18G28    29.76R
$$

KSZ066>073-081>083-090>101-010500-
SOUTHEAST KANSAS

CITY           SKY/WX    TMP DP  RH WIND       PRES   REMARKS
CHANUTE        MOCLDY    83  66  56 S18G29    29.77R
COFFEYVILLE    PTCLDY    85  67  54 S20G26    29.78R
HUTCHINSON     LGT RAIN  70  65  84 S5        29.74F
MEDICINE LODGE   N/A     86  64  47 S18G24    29.66R
NEWTON         CLOUDY    66  61  82 N7        29.85R THUNDER
PARSONS        MOCLDY    83  66  56 S9G18     29.79R
WICHITA INTL   CLOUDY    86  65  49 S15G31    29.73R
WICHITA JABRA  CLOUDY    86  65  49 W8G22     29.77R
WINFIELD       MOCLDY    84  66  54 S16G28    29.74R
$$

KSZ007>012-019>026-033>040-048>060-102>105-010500-
NORTHEAST KANSAS

CITY           SKY/WX    TMP DP  RH WIND       PRES   REMARKS
EMPORIA        LGT RAIN  67  65  93 NE7       29.85S
LAWRENCE       LGT RAIN N/A N/A N/A SE13      29.86F
MANHATTAN      LGT RAIN  69  32  25 VRB5      29.76R
OLATHE IND     TSTM      66  65  96 NW10      29.93R FOG
OLATHE EXE     TSTM      65  64  97 NW12G31   29.90R FOG
SALINA         CLOUDY    71  67  87 W13       29.74F THUNDER
TOPEKA BILLARD LGT RAIN  69  68  96 SE12      29.81F
TOPEKA FORBES  LGT RAIN  67  65  93 SE15      29.84S
$$



USA.gov is the U.S. government's official web portal to all federal, state and local government web resources and services.